Atwater, CA

5:42 PM PST on February 23, 2017 (GMT -0800)
Castle

Weather History for KMER - December, 2013

Change the Weather History Date:

Monday, December 16, 2013

  Actual Average (KMCE) Record (KMCE)
Temperature  
Mean Temperature 47 °F -  
Max Temperature 62 °F 54 °F 63 °F (2014)
Min Temperature 32 °F 34 °F 25 °F (2007)
Degree Days  
Heating Degree Days 18    
Moisture  
Dew Point 37 °F    
Average Humidity 91    
Maximum Humidity 100    
Minimum Humidity 37    
Precipitation  
Precipitation 0.00 in - - ()
Sea Level Pressure  
Sea Level Pressure 30.23 in    
Wind  
Wind Speed 0 mph (ESE)    
Max Wind Speed 4 mph    
Max Gust Speed -    
Visibility 3 miles    
Events      
Averages and records for this station are not official NWS values.
T = Trace of Precipitation, MM = Missing Value Source: NWS Daily Summary

Daily Weather History Graph

Daily Weather History Graph

Search for Another Location

Airport or City:

Trip Planner

Search our weather history database for the weather conditions in past years. The results will help you decide how hot, cold, wet, or windy it might be!

Date:

Astronomy

Dec. 16, 2013 Rise Set
Actual Time 7:10 AM PST 4:46 PM PST
Civil Twilight 6:41 AM PST 5:15 PM PST
Nautical Twilight 6:08 AM PST 5:48 PM PST
Astronomical Twilight 5:36 AM PST 6:19 PM PST
Moon 4:39 PM PST (12/16) 6:24 AM PST (12/16)
Length of Visible Light 10h 34m
Length of Day
9h 35m
Full, 100% of the Moon is Illuminated
Dec 16
Full
Dec 17
Full
Dec 25
Last Quarter
Jan 1
New
Jan 7
First Quarter

Hourly Weather History & Observations

Time (PST) Temp. Windchill Dew Point Humidity Pressure Visibility Wind Dir Wind Speed Gust Speed Precip Events Conditions
12:15 AM 35.6 °F - 35.6 °F 100% 30.28 in 3.0 mi Calm Calm - N/A   Clear
12:35 AM 35.6 °F - 35.6 °F 100% 30.28 in 3.0 mi Calm Calm - N/A   Clear
12:55 AM 35.6 °F - 35.6 °F 100% 30.27 in 3.0 mi Calm Calm - N/A   Clear
1:15 AM 33.8 °F - 33.8 °F 100% 30.27 in 3.0 mi Calm Calm - N/A   Clear
1:35 AM 33.8 °F 30.8 °F 33.8 °F 100% 30.27 in 3.0 mi ESE 3.5 mph - N/A   Clear
1:55 AM 33.8 °F - 33.8 °F 100% 30.27 in 3.0 mi Calm Calm - N/A   Clear
2:15 AM 35.6 °F - 35.6 °F 100% 30.27 in 4.0 mi Calm Calm - N/A   Clear
2:35 AM 35.6 °F - 35.6 °F 100% 30.27 in 4.0 mi Calm Calm - N/A   Clear
2:55 AM 33.8 °F - 33.8 °F 100% 30.26 in 3.0 mi Calm Calm - N/A   Clear
3:15 AM 33.8 °F - 33.8 °F 100% 30.25 in 3.0 mi Calm Calm - N/A   Clear
3:35 AM 33.8 °F - 33.8 °F 100% 30.25 in 3.0 mi Calm Calm - N/A   Clear
3:55 AM 32.0 °F - 32.0 °F 100% 30.24 in 3.0 mi Calm Calm - N/A   Clear
4:15 AM 32.0 °F - 32.0 °F 100% 30.24 in 3.0 mi Calm Calm - N/A   Clear
4:35 AM 32.0 °F - 32.0 °F 100% 30.24 in 3.0 mi Calm Calm - N/A   Clear
4:55 AM 33.8 °F - 33.8 °F 100% 30.23 in 3.0 mi Calm Calm - N/A   Clear
5:15 AM 33.8 °F - 33.8 °F 100% 30.23 in 3.0 mi Calm Calm - N/A   Clear
5:35 AM 32.0 °F - 32.0 °F 100% 30.24 in 3.0 mi Calm Calm - N/A   Clear
5:55 AM 32.0 °F - 32.0 °F 100% 30.23 in 3.0 mi Calm Calm - N/A   Clear
6:55 AM 32.0 °F - 32.0 °F 100% 30.24 in 3.0 mi Calm Calm - N/A   Haze
7:45 AM 33.8 °F - 33.8 °F 100% 30.25 in 2.5 mi Calm Calm - N/A   Haze
8:45 AM 39.2 °F - 39.2 °F 100% 30.27 in 3.0 mi Calm Calm - N/A   Haze
9:45 AM 46.4 °F - 44.6 °F 93% 30.28 in 3.0 mi Calm Calm - N/A   Haze
10:45 AM 51.8 °F - 42.8 °F 71% 30.27 in 3.0 mi Calm Calm - N/A   Haze
11:50 AM 55.4 °F - 39.2 °F 54% 30.32 in 2.5 mi Calm Calm - N/A   Haze
12:20 PM 57.2 °F - 39.2 °F 51% 30.21 in 3.0 mi Calm Calm - N/A   Haze
12:55 PM 60.8 °F - 37.4 °F 42% 30.19 in 3.0 mi Calm Calm - N/A   Haze
1:45 PM 62.6 °F - 37.4 °F 39% 30.17 in 3.0 mi Calm Calm - N/A   Haze
2:45 PM 62.6 °F - 35.6 °F 37% 30.16 in 4.0 mi Calm Calm - N/A   Haze
4:45 PM 55.4 °F - 37.4 °F 51% 30.17 in 3.0 mi Calm Calm - N/A   Haze
5:45 PM 48.2 °F - 41.0 °F 76% 30.18 in 5.0 mi Calm Calm - N/A   Haze
6:48 PM 42.8 °F - 42.8 °F 100% 30.18 in 5.0 mi Calm Calm - N/A   Haze
7:50 PM 39.2 °F - 39.2 °F 100% 30.20 in 5.0 mi Calm Calm - N/A   Haze
8:15 PM 39.2 °F - 39.2 °F 100% 30.19 in 4.0 mi Calm Calm - N/A   Clear
8:35 PM 39.2 °F - 39.2 °F 100% 30.20 in 3.0 mi Calm Calm - N/A   Clear
8:45 PM 39.2 °F - 39.2 °F 100% 30.20 in 5.0 mi Calm Calm - N/A   Haze
8:55 PM 37.4 °F - 37.4 °F 100% 30.20 in 3.0 mi Calm Calm - N/A   Clear
9:15 PM 37.4 °F - 37.4 °F 100% 30.21 in 3.0 mi Calm Calm - N/A   Clear
9:55 PM 39.2 °F - 39.2 °F 100% 30.21 in 4.0 mi Calm Calm - N/A   Clear
10:15 PM 39.2 °F - 39.2 °F 100% 30.21 in 4.0 mi Calm Calm - N/A   Clear
10:35 PM 39.2 °F - 39.2 °F 100% 30.21 in 4.0 mi Calm Calm - N/A   Clear
10:55 PM 37.4 °F - 37.4 °F 100% 30.21 in 3.0 mi Calm Calm - N/A   Clear
11:15 PM 37.4 °F - 37.4 °F 100% 30.21 in 4.0 mi Calm Calm - N/A   Clear
11:35 PM 37.4 °F - 37.4 °F 100% 30.21 in 3.0 mi Calm Calm - N/A   Clear
11:55 PM 37.4 °F - 37.4 °F 100% 30.20 in 3.0 mi Calm Calm - N/A   Clear